Regional Weather Roundup
Issued by NWS Green Bay, WI

Home | Current Version | Previous Version | Text Only | Print | Product List | Glossary On
Versions: 1 2 3 4 5 6 7 8 9 10 11 12 13 14 15 16 17 18 19 20 21 22 23 24 25 26 27 28 29 30 31 32 33 34 35 36 37 38 39 40 41 42 43 44 45 46 47 48 49 50
000
ASUS43 KGRB 300759
RWRGRB

NORTH-CENTRAL AND NORTHEAST WISCONSIN REGIONAL WEATHER ROUNDUP
NATIONAL WEATHER SERVICE GREEN BAY WI
200 AM CST FRI JAN 30 2015

WIZ005-009-010>012-018-019-300900-
NORTH CENTRAL WISCONSIN

CITY           SKY/WX    TMP DP  RH WIND       PRES   REMARKS
IRONWOOD       CLOUDY    12   7  79 NW9       30.41R WCI   0
MANITOWISH WTR NOT AVBL
ARBOR VITAE    NOT AVBL
EAGLE RIVER    NOT AVBL
LAND O LAKES   NOT AVBL
RHINELANDER    CLOUDY    12   3  67 N7        30.37R WCI   1
PHILLIPS       NOT AVBL
ANTIGO         NOT AVBL
TOMAHAWK       NOT AVBL
MERRILL        NOT AVBL
$$

WIZ013-073-300900-
NORTHEAST WISCONSIN

CITY           SKY/WX    TMP DP  RH WIND       PRES   REMARKS
IRON MOUNTAIN  CLOUDY    12   2  64 N9        30.37R WCI   0
MARINETTE      CLOUDY    16   1  53 N13G23    30.40R WCI   2
$$

WIZ017-030-035>037-045-300900-
CENTRAL WISCONSIN

CITY           SKY/WX    TMP DP  RH WIND       PRES   REMARKS
MEDFORD        NOT AVBL
WAUSAU         CLOUDY    16   4  59 NW10      30.40R WCI   4
MOSINEE        NOT AVBL
MARSHFIELD     CLOUDY    14   4  64 NW10      30.42R WCI   1
WISC RAPIDS    CLOUDY    18   6  59 N7        30.44R WCI   9
STEVENS POINT  NOT AVBL
WAUPACA        NOT AVBL
SHAWANO        NOT AVBL
CLINTONVILLE   NOT AVBL
$$

WIZ038-039-048-051-300900-
FOX VALLEY

CITY           SKY/WX    TMP DP  RH WIND       PRES   REMARKS
NWS GREEN BAY  MOCLDY    18   8  65 NW6       30.41R WCI  10
APPLETON       NOT AVBL
OSHKOSH        CLOUDY    20   8  60 NW13      30.40R WCI   7
FOND DU LAC    PTCLDY    17   6  62 NW9       30.40R WCI   6
$$

WIZ022-050-052-300900-
EAST CENTRAL WISCONSIN

CITY           SKY/WX    TMP DP  RH WIND       PRES   REMARKS
STURGEON BAY   CLOUDY    16   3  57 N18       30.41R WCI  -1
MANITOWOC      NOT AVBL
SHEBOYGAN      FLURRIES  20  10  65 N10       30.39R WCI   9
$$

LMZ563-521-522-541>543-300900-
LAKESHORE

STATION/POSITION TIME  TEMP    WIND        PRES    VSBY  WAVE
                       AIR SEA DIR/SP/G                  HT/PER
                 (UTC) (F)     (DEG/KT/KT) (MB)    (MI)  (FT/S)
SHEBOYGAN LKSHOR 0700   22      10/ 24/ 27 1029.4R
KEWAUNEE LKSHORE 0700   16     350/  7/ 11 1027.9R
NORTHPORT PIER   0700   18     330/ 22/ 28 1028.4R
SISTER BAY LKSHO 0700   16     350/ 28/ 34   N/A
CHAMBERS ISLAND  0700   17     320/ 14/ 16 1029.1R
MENOMINEE LKSHOR 0700   18     310/  9     1029.7R
$$



USA.gov is the U.S. government's official web portal to all federal, state and local government web resources and services.